Regional Weather Roundup
Issued by NWS Portland, ME

Home | Current Version | Previous Version | Text Only | Print | Product List | Glossary On
Versions: 1 2 3 4 5 6 7 8 9 10 11 12 13 14 15 16 17 18 19 20 21 22 23 24 25 26 27 28 29 30 31 32 33 34 35 36 37 38 39 40 41 42 43 44 45 46 47 48 49 50
000
ASUS41 KGYX 191710
RWRGYX
WEATHER ROUNDUP FOR MAINE AND NEW HAMPSHIRE
NATIONAL WEATHER SERVICE GRAY ME
100 PM EDT SUN APR 19 2015

MEZ002-005-006-010-012-015-018-020-021-024-026-027-029-191800-
MAINE

CITY           SKY/WX    TMP DP  RH WIND       PRES   REMARKS
PORTLAND       MOSUNNY   54  33  45 E8        30.25F
SANFORD        MOSUNNY   54  32  43 SE12      30.24F
BAR HARBOR     MOSUNNY   48  30  49 NW6       30.22F
WISCASSET      MOSUNNY   51  30  44 VRB5      30.26F
ROCKLAND       PTSUNNY   48  30  49 NW10      30.23F
FRYEBURG       SUNNY     53  26  35 VRB3      30.24F
LEWISTONAUBURN MOSUNNY   52  28  40 SW3       30.25S
AUGUSTA        MOSUNNY   48  28  46 VRB3      30.25F
WATERVILLE     MOSUNNY   48  28  46 NW6       30.23S
BANGOR         PTSUNNY   51  26  37 NW7       30.23S
GREENVILLE       N/A     43  24  47 N10G18    30.19S
MILLINOCKET    PTSUNNY   49  27  42 VRB6      30.22S
HOULTON        PTSUNNY   48  19  31 N7        30.17F
PRESQUE ISLE   PTSUNNY   48  19  32 W14       30.17F
FRENCHVILLE    SUNNY     47  19  33 W17G23    30.14F
CARIBOU        PTSUNNY   47  22  37 W10       30.15F
$$

NHZ002-005-008-009-011-012-014-191800-
NEW HAMPSHIRE

CITY           SKY/WX    TMP DP  RH WIND       PRES   REMARKS
PORTSMOUTH     MOSUNNY   51  34  51 E13       30.24S
ROCHESTER      MOSUNNY   56  30  37 VRB6      30.23S
NASHUA         MOSUNNY   56  28  34 CALM      30.24F
MANCHESTER     MOSUNNY   57  28  33 VRB3      30.22F
CONCORD        SUNNY     57  23  26 W5        30.23F
LACONIA        SUNNY     54  21  28 NE8       30.21F
PLYMOUTH       FAIR      55  32  42 W7        30.23F
BERLIN         SUNNY     49  25  39 N9        30.24F
WHITEFIELD     SUNNY     49  23  36 MISG      30.24F
JAFFREY        SUNNY     55  24  30 W8        30.23S
KEENE          SUNNY     55  27  33 SW6       30.25R
LEBANON        SUNNY     55  29  36 VRB3      30.25F
MT WASHINGTON  MOSUNNY   23   1  39 N17         N/A  WCI   9
$$

VTZ005-007-008-191800-
VERMONT

CITY           SKY/WX    TMP DP  RH WIND       PRES   REMARKS
ST JOHNSBURY     N/A     50  24  36 MISG      30.25F
MONTPELIER     SUNNY     49  22  34 CALM      30.30F
BURLINGTON     MOSUNNY   49  27  42 NW12      30.31S
$$

MAZ007-012-024-CTZ003-RIZ002-NYZ038-NYZ072-191800-
SOUTHERN NEW ENGLAND AND NY

CITY           SKY/WX    TMP DP  RH WIND       PRES   REMARKS
BOSTON         MOSUNNY   49  36  61 SE13      30.29S
WORCESTER      SUNNY     54  26  34 S8        30.23F
NANTUCKET      SUNNY     50  36  58 NE14      30.27R
PROVIDENCE     MOSUNNY   56  32  40 MISG      30.26S
HARTFORD       PTSUNNY   59  26  28 E5        30.24F
ALBANY         PTSUNNY   55  30  38 VRB3      30.27F
NEW YORK CITY  PTSUNNY   58  30  34 NE9       30.25S
$$

ANZ081-ANZ082-ANZ150-NHZ014-MEZ023>029-191800-
COASTAL MARINE OBSERVATIONS

STATION/POSITION TIME  TEMP    WIND        PRES    WAVE
                       AIR SEA DIR/SP/G            HT/PER
                 (UTC) (F)     (DEG/KT/KT) (MB)    (FT/S)
MOUNT DESERT ROC 1700   42     160/  5/  6 1024.5F
MATINICUS ROCK   1600   40      50/  3/  4 1024.5F
WELLS            1600   45 40  140/  8/ 13 1024.1S
ISLE OF SHOALS   1600   42     110/ 11/ 11 1024.4F
CASHES LEDGE BUO 1650   41 41              1024.4R   2/ 9
$$

.............KEY..............
   WCI - WIND CHILL
   TC  - TEMPERATURE IN CELSIUS
   VSB - VISIBILITY IN MILES
   HX  - HEAT INDEX
   FAIR- INDICATES FEW OR NO CLOUDS BELOW 12,000 FT, WITH NO
         SIGNIFICANT WEATHER AND/OR OBSTRUCTIONS TO VISIBILITY.




USA.gov is the U.S. government's official web portal to all federal, state and local government web resources and services.